Regional Weather Roundup
Issued by NWS

Home | Current Version | Previous Version | Text Only | Print | Product List | Glossary Off
Versions: 1 2 3 4 5 6 7 8 9 10 11 12 13 14 15 16 17 18 19 20 21 22 23 24 25 26 27 28 29 30 31 32 33 34 35 36 37 38 39 40 41 42 43 44 45 46 47 48 49 50

000
ASUS43 KFSD 201002
RWRSD

WEATHER ROUNDUP FOR SOUTH DAKOTA
NATIONAL WEATHER SERVICE SIOUX FALLS SD
500 AM CDT SUN AUG 20 2017

NOTE: "FAIR" INDICATES FEW OR NO CLOUDS BELOW 12,000 FEET WITH NO
SIGNIFICANT WEATHER AND/OR OBSTRUCTIONS TO VISIBILITY.


SDZ001>005-009-010-012>017-201100-
NORTHWEST AND NORTH CENTRAL SOUTH DAKOTA

CITY           SKY/WX    TMP DP  RH WIND       PRES   REMARKS
BUFFALO          N/A     60  45  57 NE13      29.97F
FAITH            N/A     64  50  60 N14       30.01R
MOBRIDGE       CLOUDY    64  53  67 S9        29.96R
$$

SDZ012>016-024>037-041>051-057-063-072>074-201100-
SOUTHWEST AND SOUTH CENTRAL SOUTH DAKOTA

CITY           SKY/WX    TMP DP  RH WIND       PRES   REMARKS
RAPID CTY ARPT CLEAR     61  49  64 N13       30.02R
PIERRE         CLOUDY    68  55  63 NE17      29.90F
CUSTER         CLEAR     59  39  47 NE13      30.10R
ELLSWORTH AFB  CLEAR     64  48  55 N10       30.04R
PHILIP         CLEAR     68  53  58 VRB5      29.92R
PINE RIDGE     CLEAR     59  49  69 E8        29.98R
SPEARFISH      FAIR      57  45  62 SE7       30.08F
WINNER         LGT RAIN  66  65  96 CALM      29.91S VSB 1/4
$$

SDZ004>011-016>023-039-040-201100-
NORTHEAST SOUTH DAKOTA

CITY           SKY/WX    TMP DP  RH WIND       PRES   REMARKS
ABERDEEN       CLOUDY    65  60  84 N6        29.92R
WATERTOWN      CLOUDY    63  62  97 W5        29.89R
BROOKINGS      CLOUDY    62  61  96 CALM      29.88R
SISSETON         N/A     69  64  84 W9        29.86R
$$

SDZ017-020-022-023-036>040-048>070-201100-
SOUTHEAST SOUTH DAKOTA

CITY           SKY/WX    TMP DP  RH WIND       PRES   REMARKS
SIOUX FALLS    CLOUDY    70  63  78 W3        29.86R
HURON          PTCLDY    64  63  96 NW5       29.90R FOG
CHAMBERLAIN    CLEAR     67  67 100 N10       29.91R
MITCHELL       CLEAR     65  63  93 CALM      29.86R
YANKTON        CLEAR     66  61  84 CALM      29.84S
$$

ABBREVIATIONS USED IN REMARKS
   TC - TEMPERATURE IN CELSIUS
  WCI - WIND CHILL INDEX
   HX - HEAT INDEX
  VSB - VISIBILITY




USA.gov is the U.S. government's official web portal to all federal, state and local government web resources and services.